Terug naar catalogus

STARLINK-31242

ActiefCommunicatieVLEO
NORAD 58864·PAYLOAD·🇺🇸 United States

Gelanceerd Jan 29, 2024 vanaf Cape Canaveral Space Force Station

Loading…

Volgende Passages (komende 24 uur)

TLE

VersSource: CelesTrak SupGP

Epoch: Sep 14, 2026, 21:25 UTC

1 58864C 24019M   26257.89284722  .00025304  00000+0  91668-3 0  2574
2 58864  43.0024 260.4051 0001344 266.9827 269.6384 15.27560019    11

Volg STARLINK-31242 in realtime met AllMySat

Download on the App Store